Wetterdaten: aktuell Mittwoch, 24.01.2018 09:58
Datum Zeit Innentemp. Temp Boden Temp Norden Innenfeuchte Licht Bodenfeuchte Feuchte Nord Luftdruck Regenmenge Windstrke Windrichtung Windrichtung Sonne Zeit Windchill
24.01.2018 09:58 19,2 C 6,1 C 6,8 C 59 % 79 % 95 % 93 % 1024 hPa 0,0 l/m 4,6 km/h O22.5 90 5 min 6,3 C
24.01.2018 09:53 19,2 C 6,0 C 6,7 C 59 % 77 % 95 % 93 % 1024 hPa 0,0 l/m 5,3 km/h O-SO22.5 105 5 min 5,9 C
24.01.2018 09:48 19,2 C 5,9 C 6,6 C 59 % 72 % 95 % 93 % 1024 hPa 0,0 l/m 3,3 km/h SO 135 5 min 6,6 C
24.01.2018 09:43 19,2 C 5,8 C 6,5 C 59 % 68 % 95 % 93 % 1024 hPa 0,0 l/m 0,1 km/h SO 135 0 min 6,5 C
24.01.2018 09:38 19,2 C 5,8 C 6,4 C 59 % 78 % 95 % 92 % 1024 hPa 0,0 l/m 0,1 km/h SO 135 5 min 6,4 C
24.01.2018 09:33 19,2 C 5,7 C 6,3 C 59 % 72 % 95 % 92 % 1024 hPa 0,0 l/m 8,2 km/h SO22.5 140 5 min 4,6 C
24.01.2018 09:28 19,2 C 5,7 C 6,2 C 59 % 73 % 95 % 92 % 1024 hPa 0,0 l/m 0,0 km/h SO 145 4 min 6,2 C
24.01.2018 09:24 19,2 C 5,6 C 6,0 C 59 % 71 % 95 % 92 % 1024 hPa 0,0 l/m 0,0 km/h SO 145 6 min 6,0 C
24.01.2018 09:18 19,2 C 5,4 C 6,0 C 59 % 75 % 95 % 92 % 1024 hPa 0,0 l/m 0,0 km/h SO 145 5 min 6,0 C
24.01.2018 09:13 19,2 C 5,4 C 5,9 C 59 % 72 % 95 % 91 % 1024 hPa 0,0 l/m 7,6 km/h S-SO45 165 5 min 4,3 C
24.01.2018 09:08 19,2 C 5,3 C 5,8 C 59 % 66 % 95 % 91 % 1024 hPa 0,0 l/m 11,7 km/h S22.5 190 0 min 3,3 C
24.01.2018 09:03 19,2 C 5,3 C 5,8 C 59 % 72 % 95 % 91 % 1024 hPa 0,0 l/m 1,4 km/h SO45 135 5 min 5,8 C
24.01.2018 08:58 19,2 C 5,0 C 5,8 C 59 % 59 % 95 % 90 % 1024 hPa 0,0 l/m 7,4 km/h S45 185 0 min 4,2 C
24.01.2018 08:53 19,2 C 5,0 C 5,7 C 59 % 58 % 95 % 90 % 1024 hPa 0,0 l/m 0,0 km/h S-SO 160 0 min 5,7 C
24.01.2018 08:48 19,2 C 5,1 C 5,7 C 59 % 47 % 95 % 90 % 1024 hPa 0,0 l/m 0,0 km/h S-SO 160 0 min 5,7 C
24.01.2018 08:43 19,2 C 5,0 C 5,7 C 59 % 27 % 95 % 90 % 1024 hPa 0,0 l/m 4,1 km/h S-SO22.5 165 0 min 5,7 C
24.01.2018 08:38 19,2 C 5,1 C 5,8 C 59 % 22 % 95 % 90 % 1024 hPa 0,0 l/m 0,0 km/h W-SW 245 0 min 5,8 C
24.01.2018 08:33 19,3 C 5,1 C 5,8 C 59 % 21 % 95 % 90 % 1024 hPa 0,0 l/m 0,0 km/h W-SW 245 0 min 5,8 C
24.01.2018 08:28 19,3 C 5,1 C 5,8 C 59 % 19 % 95 % 91 % 1024 hPa 0,0 l/m 0,0 km/h W-SW 245 0 min 5,8 C
24.01.2018 08:23 19,2 C 5,3 C 5,9 C 59 % 14 % 95 % 91 % 1024 hPa 0,0 l/m 0,0 km/h W-SW 245 0 min 5,9 C
24.01.2018 08:18 19,2 C 5,3 C 5,8 C 59 % 13 % 95 % 90 % 1024 hPa 0,0 l/m 5,3 km/h S22.5 185 5 min 4,9 C
24.01.2018 08:13 19,3 C 5,1 C 5,8 C 59 % 9 % 95 % 90 % 1024 hPa 0,0 l/m 7,7 km/h S-SW45 195 0 min 4,2 C
24.01.2018 08:08 19,3 C 5,0 C 5,7 C 59 % 7 % 95 % 90 % 1024 hPa 0,0 l/m 9,8 km/h S22.5 180 0 min 3,5 C
24.01.2018 08:03 19,3 C 5,0 C 5,7 C 59 % 4 % 95 % 89 % 1025 hPa 0,0 l/m 8,7 km/h S22.5 170 0 min 3,8 C
24.01.2018 07:58 19,3 C 5,0 C 5,7 C 59 % 3 % 95 % 89 % 1025 hPa 0,0 l/m 0,8 km/h S 180 0 min 5,7 C
24.01.2018 07:53 19,3 C 5,0 C 5,8 C 59 % 1 % 95 % 89 % 1025 hPa 0,0 l/m 0,3 km/h S 175 0 min 5,8 C
24.01.2018 07:48 19,3 C 5,1 C 5,8 C 59 % 1 % 95 % 89 % 1025 hPa 0,0 l/m 0,1 km/h S 170 0 min 5,8 C
24.01.2018 07:43 19,3 C 5,1 C 5,8 C 59 % 1 % 95 % 89 % 1025 hPa 0,0 l/m 0,2 km/h S 170 0 min 5,8 C
24.01.2018 07:38 19,3 C 5,3 C 5,9 C 59 % 0 % 95 % 89 % 1025 hPa 0,0 l/m 0,4 km/h S 170 0 min 5,9 C
24.01.2018 07:33 19,3 C 5,3 C 5,9 C 59 % 0 % 95 % 89 % 1025 hPa 0,0 l/m 0,0 km/h S 170 0 min 5,9 C
24.01.2018 07:28 19,3 C 5,3 C 6,0 C 59 % 0 % 95 % 89 % 1025 hPa 0,0 l/m 0,0 km/h S 170 0 min 6,0 C
24.01.2018 07:23 19,4 C 5,3 C 6,0 C 59 % 0 % 95 % 88 % 1025 hPa 0,0 l/m 4,4 km/h S-SW22.5 200 0 min 6,0 C
24.01.2018 07:18 19,4 C 5,2 C 6,0 C 59 % 0 % 95 % 88 % 1025 hPa 0,0 l/m 8,1 km/h S22.5 170 0 min 4,3 C
24.01.2018 07:13 19,4 C 5,3 C 6,1 C 59 % 0 % 95 % 89 % 1025 hPa 0,0 l/m 0,0 km/h S 190 0 min 6,1 C
24.01.2018 07:08 19,4 C 5,5 C 6,2 C 59 % 0 % 95 % 88 % 1025 hPa 0,0 l/m 0,0 km/h S 190 0 min 6,2 C
24.01.2018 07:03 19,4 C 5,4 C 6,3 C 59 % 0 % 95 % 88 % 1025 hPa 0,0 l/m 0,0 km/h S 190 0 min 6,3 C
24.01.2018 06:58 19,4 C 5,4 C 6,3 C 59 % 0 % 95 % 88 % 1025 hPa 0,0 l/m 5,6 km/h S 190 0 min 5,3 C
24.01.2018 06:53 19,3 C 5,4 C 6,3 C 59 % 0 % 95 % 88 % 1025 hPa 0,0 l/m 8,4 km/h S-SW22.5 205 0 min 4,6 C
24.01.2018 06:48 19,3 C 5,5 C 6,4 C 59 % 0 % 95 % 88 % 1025 hPa 0,0 l/m 3,3 km/h SW22.5 215 0 min 6,4 C
24.01.2018 06:43 19,3 C 5,6 C 6,4 C 59 % 0 % 95 % 88 % 1025 hPa 0,0 l/m 0,0 km/h W-SW 240 0 min 6,4 C
24.01.2018 06:38 19,3 C 5,6 C 6,4 C 59 % 0 % 95 % 88 % 1025 hPa 0,0 l/m 0,0 km/h S-SW 200 0 min 6,4 C
24.01.2018 06:33 19,3 C 5,5 C 6,5 C 59 % 0 % 95 % 88 % 1025 hPa 0,0 l/m 0,0 km/h S-SW 200 0 min 6,5 C
24.01.2018 06:28 19,3 C 5,6 C 6,5 C 58 % 0 % 95 % 88 % 1025 hPa 0,0 l/m 0,0 km/h W 260 0 min 6,5 C
24.01.2018 06:23 19,3 C 5,7 C 6,5 C 58 % 0 % 94 % 88 % 1025 hPa 0,0 l/m 0,0 km/h W 260 0 min 6,5 C
24.01.2018 06:18 19,3 C 5,7 C 6,6 C 58 % 0 % 94 % 88 % 1025 hPa 0,0 l/m 0,0 km/h W 260 0 min 6,6 C
24.01.2018 06:13 19,3 C 5,7 C 6,6 C 58 % 0 % 94 % 88 % 1025 hPa 0,0 l/m 0,0 km/h W 260 0 min 6,6 C
24.01.2018 06:08 19,3 C 5,8 C 6,6 C 58 % 0 % 94 % 88 % 1025 hPa 0,0 l/m 0,0 km/h W 260 0 min 6,6 C
24.01.2018 06:03 19,3 C 5,8 C 6,7 C 58 % 0 % 94 % 88 % 1025 hPa 0,0 l/m 0,0 km/h W 260 0 min 6,7 C
24.01.2018 05:58 19,3 C 5,8 C 6,7 C 58 % 0 % 94 % 88 % 1025 hPa 0,0 l/m 0,0 km/h W 260 0 min 6,7 C
24.01.2018 05:53 19,3 C 5,9 C 6,7 C 58 % 0 % 94 % 88 % 1025 hPa 0,0 l/m 0,0 km/h W 260 0 min 6,7 C
24.01.2018 05:48 19,3 C 5,8 C 6,8 C 58 % 0 % 94 % 87 % 1025 hPa 0,0 l/m 0,3 km/h W 260 0 min 6,8 C
24.01.2018 05:43 19,4 C 5,8 C 6,9 C 58 % 0 % 94 % 87 % 1025 hPa 0,0 l/m 0,2 km/h W 260 0 min 6,9 C
24.01.2018 05:38 19,3 C 5,8 C 7,0 C 58 % 0 % 94 % 88 % 1025 hPa 0,0 l/m 0,0 km/h W 260 0 min 7,0 C
24.01.2018 05:33 19,3 C 5,8 C 7,0 C 58 % 0 % 94 % 88 % 1025 hPa 0,0 l/m 0,0 km/h W 260 0 min 7,0 C
24.01.2018 05:28 19,4 C 5,8 C 7,1 C 58 % 0 % 94 % 88 % 1025 hPa 0,0 l/m 0,0 km/h W 260 0 min 7,1 C
24.01.2018 05:23 19,4 C 5,8 C 7,1 C 58 % 0 % 94 % 88 % 1025 hPa 0,0 l/m 0,0 km/h W 260 0 min 7,1 C
24.01.2018 05:18 19,4 C 5,8 C 7,2 C 58 % 0 % 94 % 88 % 1025 hPa 0,0 l/m 0,0 km/h W 260 0 min 7,2 C
24.01.2018 05:13 19,4 C 5,8 C 7,1 C 58 % 0 % 94 % 88 % 1025 hPa 0,0 l/m 0,3 km/h W 260 0 min 7,1 C
24.01.2018 05:08 19,4 C 5,8 C 7,1 C 58 % 0 % 94 % 88 % 1025 hPa 0,0 l/m 0,1 km/h W 260 0 min 7,1 C
24.01.2018 05:03 19,4 C 5,8 C 7,1 C 58 % 0 % 94 % 88 % 1025 hPa 0,0 l/m 0,2 km/h W 260 0 min 7,1 C
24.01.2018 04:58 19,4 C 5,8 C 7,1 C 58 % 0 % 94 % 88 % 1025 hPa 0,0 l/m 1,2 km/h W 260 0 min 7,1 C
24.01.2018 04:53 19,4 C 5,8 C 7,1 C 57 % 0 % 94 % 88 % 1025 hPa 0,0 l/m 0,0 km/h W 260 0 min 7,1 C
24.01.2018 04:48 19,4 C 5,8 C 7,1 C 57 % 0 % 94 % 88 % 1025 hPa 0,0 l/m 0,0 km/h W 260 0 min 7,1 C
24.01.2018 04:43 19,4 C 5,8 C 7,1 C 57 % 0 % 94 % 88 % 1025 hPa 0,0 l/m 0,0 km/h W 260 0 min 7,1 C
24.01.2018 04:38 19,4 C 5,8 C 7,0 C 57 % 0 % 94 % 88 % 1025 hPa 0,0 l/m 0,3 km/h W 260 0 min 7,0 C
24.01.2018 04:33 19,4 C 5,8 C 7,0 C 57 % 0 % 94 % 88 % 1025 hPa 0,0 l/m 0,0 km/h W 260 0 min 7,0 C
24.01.2018 04:28 19,4 C 5,8 C 7,0 C 57 % 0 % 94 % 88 % 1025 hPa 0,0 l/m 1,0 km/h W-SW22.5 240 0 min 7,0 C
24.01.2018 04:23 19,5 C 5,8 C 7,0 C 57 % 0 % 94 % 88 % 1025 hPa 0,0 l/m 0,0 km/h SW 230 0 min 7,0 C
24.01.2018 04:18 19,5 C 5,8 C 7,0 C 57 % 0 % 94 % 88 % 1025 hPa 0,0 l/m 0,0 km/h SW 230 0 min 7,0 C
24.01.2018 04:13 19,5 C 5,8 C 7,0 C 57 % 0 % 94 % 88 % 1025 hPa 0,0 l/m 0,0 km/h SW 230 0 min 7,0 C
24.01.2018 04:08 19,5 C 5,8 C 7,0 C 57 % 0 % 94 % 88 % 1025 hPa 0,0 l/m 0,3 km/h SW 230 0 min 7,0 C
24.01.2018 04:03 19,5 C 5,8 C 6,9 C 57 % 0 % 94 % 88 % 1025 hPa 0,0 l/m 0,0 km/h N 5 0 min 6,9 C
24.01.2018 03:58 19,5 C 5,8 C 6,9 C 57 % 0 % 94 % 88 % 1025 hPa 0,0 l/m 0,0 km/h N 5 0 min 6,9 C
24.01.2018 03:53 19,5 C 5,8 C 6,9 C 57 % 0 % 94 % 88 % 1025 hPa 0,0 l/m 0,1 km/h N 5 0 min 6,9 C
24.01.2018 03:48 19,5 C 5,8 C 6,8 C 57 % 0 % 94 % 88 % 1025 hPa 0,0 l/m 0,3 km/h N 360 0 min 6,8 C
24.01.2018 03:43 19,5 C 5,8 C 6,8 C 57 % 0 % 94 % 88 % 1025 hPa 0,0 l/m 0,8 km/h N 360 0 min 6,8 C
24.01.2018 03:38 19,6 C 5,8 C 6,8 C 57 % 0 % 94 % 87 % 1025 hPa 0,0 l/m 2,6 km/h N 360 0 min 6,8 C
24.01.2018 03:33 19,6 C 5,8 C 6,8 C 57 % 0 % 94 % 87 % 1025 hPa 0,0 l/m 3,7 km/h NO45 50 0 min 6,8 C
24.01.2018 03:28 19,6 C 5,8 C 6,7 C 57 % 0 % 94 % 87 % 1025 hPa 0,0 l/m 0,1 km/h O22.5 90 0 min 6,7 C
24.01.2018 03:23 19,6 C 5,8 C 6,6 C 57 % 0 % 94 % 87 % 1025 hPa 0,0 l/m 0,1 km/h O 90 0 min 6,6 C
24.01.2018 03:18 19,6 C 5,8 C 6,6 C 57 % 0 % 94 % 87 % 1025 hPa 0,0 l/m 0,8 km/h O-SO22.5 120 0 min 6,6 C
24.01.2018 03:13 19,6 C 5,8 C 6,6 C 57 % 0 % 94 % 87 % 1025 hPa 0,0 l/m 4,5 km/h S-SO22.5 160 0 min 6,6 C
24.01.2018 03:08 19,6 C 5,8 C 6,5 C 57 % 0 % 94 % 86 % 1025 hPa 0,0 l/m 10,9 km/h SO45 130 0 min 4,3 C
24.01.2018 03:03 19,6 C 5,8 C 6,5 C 57 % 0 % 94 % 86 % 1025 hPa 0,0 l/m 10,9 km/h SO45 130 0 min 4,3 C
24.01.2018 02:58 19,6 C 5,8 C 6,5 C 57 % 0 % 94 % 86 % 1025 hPa 0,0 l/m 10,9 km/h SO45 130 0 min 4,3 C
24.01.2018 02:53 19,6 C 5,8 C 6,4 C 57 % 0 % 94 % 87 % 1025 hPa 0,0 l/m 7,6 km/h S-SO45 155 0 min 4,9 C
24.01.2018 02:48 19,7 C 5,8 C 6,4 C 57 % 0 % 94 % 87 % 1025 hPa 0,0 l/m 4,3 km/h S-SO45 160 0 min 6,4 C
24.01.2018 02:43 19,7 C 5,8 C 6,3 C 57 % 0 % 94 % 87 % 1025 hPa 0,0 l/m 1,8 km/h O-SO45 115 0 min 6,3 C
24.01.2018 02:38 19,7 C 5,8 C 6,3 C 57 % 0 % 94 % 86 % 1025 hPa 0,0 l/m 0,0 km/h SO 135 0 min 6,3 C
24.01.2018 02:33 19,7 C 5,8 C 6,3 C 57 % 0 % 94 % 86 % 1025 hPa 0,0 l/m 0,0 km/h SO 135 0 min 6,3 C
24.01.2018 02:28 19,7 C 5,8 C 6,3 C 57 % 0 % 94 % 86 % 1025 hPa 0,0 l/m 0,0 km/h SO 135 0 min 6,3 C
24.01.2018 02:23 19,7 C 5,8 C 6,2 C 57 % 0 % 94 % 86 % 1025 hPa 0,0 l/m 0,0 km/h SO 135 0 min 6,2 C
24.01.2018 02:18 19,8 C 5,8 C 6,2 C 57 % 0 % 94 % 86 % 1025 hPa 0,0 l/m 0,0 km/h SO 135 0 min 6,2 C
24.01.2018 02:13 19,8 C 5,8 C 6,2 C 57 % 0 % 94 % 86 % 1025 hPa 0,0 l/m 0,0 km/h SO 135 0 min 6,2 C
24.01.2018 02:08 19,8 C 5,8 C 6,2 C 57 % 0 % 94 % 86 % 1025 hPa 0,0 l/m 0,0 km/h SO 135 0 min 6,2 C
24.01.2018 02:03 19,8 C 5,8 C 6,3 C 57 % 0 % 94 % 85 % 1025 hPa 0,0 l/m 0,0 km/h SO 135 0 min 6,3 C
24.01.2018 01:58 19,8 C 5,8 C 6,2 C 57 % 0 % 94 % 85 % 1025 hPa 0,0 l/m 0,0 km/h SO 135 0 min 6,2 C
24.01.2018 01:53 19,8 C 5,8 C 6,2 C 57 % 0 % 94 % 85 % 1025 hPa 0,0 l/m 0,0 km/h SO 135 0 min 6,2 C
24.01.2018 01:48 19,8 C 5,8 C 6,2 C 57 % 0 % 94 % 85 % 1025 hPa 0,0 l/m 0,8 km/h SO 140 0 min 6,2 C
24.01.2018 01:43 19,9 C 5,8 C 6,2 C 57 % 0 % 94 % 84 % 1026 hPa 0,0 l/m 1,0 km/h SO 140 0 min 6,2 C
24.01.2018 01:38 19,9 C 5,8 C 6,2 C 57 % 0 % 94 % 84 % 1025 hPa 0,0 l/m 0,3 km/h S-SO22.5 160 0 min 6,2 C
24.01.2018 01:34 19,9 C 5,8 C 6,2 C 57 % 0 % 94 % 83 % 1025 hPa 0,0 l/m 1,0 km/h S-SO22.5 160 0 min 6,2 C
24.01.2018 01:28 19,9 C 5,8 C 6,2 C 57 % 0 % 94 % 83 % 1025 hPa 0,0 l/m 7,5 km/h S22.5 175 0 min 4,7 C
24.01.2018 01:23 19,9 C 5,8 C 6,2 C 57 % 0 % 94 % 83 % 1025 hPa 0,0 l/m 10,0 km/h S-SO22.5 160 0 min 4,1 C
24.01.2018 01:18 20,0 C 5,8 C 6,2 C 57 % 0 % 94 % 83 % 1025 hPa 0,0 l/m 0,3 km/h S-SO 155 0 min 6,2 C
24.01.2018 01:13 20,0 C 5,8 C 6,2 C 57 % 0 % 94 % 83 % 1025 hPa 0,0 l/m 10,1 km/h S45 180 0 min 4,1 C
24.01.2018 01:08 20,0 C 5,8 C 6,2 C 57 % 0 % 94 % 83 % 1026 hPa 0,0 l/m 10,1 km/h S45 180 0 min 4,1 C
24.01.2018 01:03 20,0 C 5,8 C 6,2 C 57 % 0 % 94 % 83 % 1026 hPa 0,0 l/m 0,9 km/h W-SW45 245 0 min 6,2 C
24.01.2018 00:58 20,1 C 5,8 C 6,2 C 57 % 0 % 94 % 83 % 1026 hPa 0,0 l/m 7,7 km/h S-SW22.5 205 0 min 4,6 C
24.01.2018 00:53 20,1 C 5,1 C 6,2 C 57 % 0 % 95 % 83 % 1026 hPa 0,0 l/m 6,4 km/h SW22.5 225 0 min 5,0 C
24.01.2018 00:48 20,1 C 5,1 C 6,2 C 57 % 0 % 95 % 82 % 1026 hPa 0,0 l/m 2,9 km/h SW22.5 215 0 min 6,2 C
24.01.2018 00:43 20,2 C 5,1 C 6,2 C 57 % 0 % 95 % 83 % 1026 hPa 0,0 l/m 13,5 km/h S-SW45 195 0 min 3,5 C
24.01.2018 00:38 20,2 C 5,1 C 6,2 C 56 % 0 % 95 % 84 % 1026 hPa 0,0 l/m 12,0 km/h S45 190 0 min 3,7 C
24.01.2018 00:33 20,2 C 5,1 C 6,1 C 56 % 0 % 95 % 84 % 1026 hPa 0,0 l/m 13,2 km/h S45 185 0 min 3,4 C
24.01.2018 00:28 20,3 C 5,1 C 6,1 C 56 % 0 % 95 % 86 % 1026 hPa 0,0 l/m 9,1 km/h S45 180 0 min 4,2 C
24.01.2018 00:23 20,3 C 5,1 C 6,1 C 56 % 0 % 95 % 87 % 1026 hPa 0,0 l/m 2,3 km/h S45 185 0 min 6,1 C
24.01.2018 00:18 20,3 C 5,1 C 6,1 C 56 % 0 % 95 % 87 % 1026 hPa 0,0 l/m 6,1 km/h S22.5 175 0 min 5,0 C
24.01.2018 00:13 20,3 C 5,1 C 6,0 C 56 % 0 % 95 % 87 % 1026 hPa 0,0 l/m 5,3 km/h S-SO22.5 160 0 min 5,1 C
24.01.2018 00:08 20,3 C 5,1 C 6,1 C 56 % 0 % 95 % 87 % 1026 hPa 0,0 l/m 6,1 km/h SO45 130 0 min 5,0 C
24.01.2018 00:03 20,4 C 5,1 C 6,0 C 56 % 0 % 95 % 87 % 1026 hPa 0,0 l/m 5,9 km/h S22.5 185 0 min 4,9 C
_ Min-Zeit 08:18 07:53 07:58 00:03 - 00:58 00:48 08:08 - 01:53 - - - 09:08
Minimum _ 19,2 C 5,0 C 5,7 C 56 % - 94 % 82 % 1024 hPa - 0,0 km/h - - - 3,3 C
_ Max-Zeit 00:03 09:58 05:18 06:33 09:58 00:03 09:43 00:03 00:03 00:43 - - 09:24 05:18
Maximum _ 20,4 C 6,1 C 7,2 C 59 % 79 % 95 % 93 % 1026 hPa 0,0 l/m 13,5 km/h
S-SW
- - 6 min 7,2 C
Durchschnitt _ 19,5 C 5,6 C 6,4 C 58 % #55 min. 94 % 88 % 1024 hPa #0,0 l/m 2,6 km/h S - #55 min. 5,9 C